Location: U-46 Planetarium
(42.0300°N, 88.2740°W)
Time: 14:25:57
(UTC-05:00)

Meteor 1-13 Rocket - Pass Details

Date: 16 December 2017
Orbit: 829 x 914 km, 81.3° (Epoch: 21 July)

Event Time Altitude Azimuth Distance (km) Brightness Sun altitude
Rises 17:16:39 0° 184° (S) 3,375 7.7 -9.7°
Reaches altitude 10° 17:19:01 10° 183° (S) 2,453 7.0 -10.2°
Maximum altitude 17:24:35 79° 97° (E) 875 4.2 -11.1°
Drops below altitude 10° 17:30:18 10° 12° (NNE) 2,524 6.4 -12.1°
Sets 17:32:46 0° 12° (NNE) 3,479 7.1 -12.5°
